San Angelo, TX

10:04 AM CST on February 27, 2017 (GMT -0600)
San Angelo Regional-Mathis

Weather History for KSJT - April, 2013

Change the Weather History Date:

Tuesday, April 30, 2013

  Actual Average Record
Temperature  
Mean Temperature 80 °F 70 °F  
Max Temperature 94 °F 84 °F 100 °F (2002)
Min Temperature 65 °F 56 °F 32 °F (1908)
Degree Days  
Heating Degree Days 0 1  
Month to date heating degree days 98 88  
Since 1 July heating degree days 1887 2306  
Cooling Degree Days 15 6  
Month to date cooling degree days 174 118  
Year to date cooling degree days 249 156  
Growing Degree Days 28 (Base 50)    
Moisture  
Dew Point 56 °F    
Average Humidity 55    
Maximum Humidity 87    
Minimum Humidity 22    
Precipitation  
Precipitation 0.00 in 0.06 in 1.22 in (1974)
Month to date precipitation 0.98 1.42  
Year to date precipitation 2.81 5.20  
Snow  
Snow 0.00 in 0.00 in 0.00 in (2002)
Month to date snowfall T T  
Since 1 July snowfall 2.8 2.2  
Snow Depth 0.00 in    
Sea Level Pressure  
Sea Level Pressure 29.68 in    
Wind  
Wind Speed 11 mph (South)    
Max Wind Speed 23 mph    
Max Gust Speed 31 mph    
Visibility 10 miles    
Events      
T = Trace of Precipitation, MM = Missing Value Source: NWS Daily Summary

Daily Weather History Graph

Daily Weather History Graph

Search for Another Location

Airport or City:

Trip Planner

Search our weather history database for the weather conditions in past years. The results will help you decide how hot, cold, wet, or windy it might be!

Date:

Astronomy

Apr. 30, 2013 Rise Set
Actual Time 6:57 AM CDT 8:21 PM CDT
Civil Twilight 6:32 AM CDT 8:46 PM CDT
Nautical Twilight 6:01 AM CDT 9:17 PM CDT
Astronomical Twilight 5:29 AM CDT 9:49 PM CDT
Moon 12:41 AM CDT (4/30) 11:32 AM CDT (4/30)
Length of Visible Light 14h 14m
Length of Day
13h 23m
Waning Gibbous, 70% of the Moon is Illuminated
Apr 30
Waning Gibbous
May 2
Last Quarter
May 9
New
May 17
First Quarter
May 24
Full

Hourly Weather History & Observations

Time (CDT) Temp. Heat Index Dew Point Humidity Pressure Visibility Wind Dir Wind Speed Gust Speed Precip Events Conditions
12:51 AM 70.0 °F - 59.0 °F 68% 29.72 in 10.0 mi SSE 17.3 mph 27.6 mph N/A   Clear
1:51 AM 68.0 °F - 59.0 °F 73% 29.72 in 10.0 mi South 17.3 mph 25.3 mph N/A   Clear
2:51 AM 66.9 °F - 59.0 °F 76% 29.72 in 10.0 mi South 12.7 mph 21.9 mph N/A   Clear
3:51 AM 66.0 °F - 59.0 °F 78% 29.71 in 10.0 mi South 10.4 mph - N/A   Clear
4:51 AM 66.0 °F - 60.1 °F 81% 29.71 in 10.0 mi South 10.4 mph - N/A   Clear
5:51 AM 66.0 °F - 60.1 °F 81% 29.71 in 10.0 mi SSW 12.7 mph - N/A   Clear
6:51 AM 64.9 °F - 60.1 °F 84% 29.72 in 10.0 mi SSW 12.7 mph - N/A   Clear
7:51 AM 64.9 °F - 60.1 °F 84% 29.74 in 10.0 mi South 8.1 mph - N/A   Mostly Cloudy
8:51 AM 66.9 °F - 60.1 °F 79% 29.75 in 10.0 mi South 16.1 mph - N/A   Overcast
9:00 AM 68.0 °F - 60.8 °F 78% 29.81 in 10.0 mi SSW 16.1 mph - N/A   Overcast
9:24 AM 69.8 °F - 60.8 °F 73% 29.80 in 10.0 mi South 15.0 mph 21.9 mph N/A   Scattered Clouds
9:51 AM 72.0 °F - 60.1 °F 66% 29.74 in 10.0 mi South 13.8 mph - N/A   Clear
10:51 AM 75.0 °F - 60.1 °F 60% 29.73 in 10.0 mi South 12.7 mph - N/A   Clear
11:51 AM 80.1 °F 80.7 °F 59.0 °F 48% 29.71 in 10.0 mi South 13.8 mph 19.6 mph N/A   Clear
1:51 PM 88.0 °F 86.5 °F 55.9 °F 34% 29.65 in 10.0 mi South 9.2 mph 19.6 mph N/A   Clear
2:51 PM 90.0 °F 87.5 °F 53.1 °F 28% 29.64 in 10.0 mi SW 9.2 mph 17.3 mph N/A   Clear
3:51 PM 91.9 °F - 52.0 °F 26% 29.62 in 10.0 mi South 11.5 mph 18.4 mph N/A   Clear
4:51 PM 93.0 °F - 48.9 °F 22% 29.59 in 10.0 mi South 8.1 mph - N/A   Partly Cloudy
5:51 PM 93.0 °F - 48.0 °F 21% 29.58 in 10.0 mi South 11.5 mph - N/A   Clear
6:51 PM 93.0 °F - 48.0 °F 21% 29.58 in 10.0 mi South 10.4 mph - N/A   Clear
7:51 PM 90.0 °F - 46.9 °F 23% 29.59 in 10.0 mi South 9.2 mph - N/A   Clear
8:51 PM 84.9 °F - 46.9 °F 27% 29.61 in 10.0 mi SSE 5.8 mph - N/A   Clear
9:51 PM 82.0 °F - 48.0 °F 30% 29.64 in 10.0 mi SSE 4.6 mph - N/A   Clear
10:51 PM 82.9 °F 81.9 °F 54.0 °F 37% 29.65 in 10.0 mi South 12.7 mph - N/A   Clear
11:51 PM 80.1 °F 80.2 °F 55.9 °F 43% 29.71 in 10.0 mi Variable 4.6 mph - N/A   Clear